Regional Weather Roundup
Issued by NWS

Home | Current Version | Previous Version | Graphics & Text | Print | Product List | Glossary On
Versions: 1 2 3 4 5 6 7 8 9 10 11 12 13 14 15 16 17 18 19 20 21 22 23 24 25 26 27 28 29 30 31 32 33 34 35 36 37 38 39 40 41 42 43 44 45 46 47 48 49 50
000
ASUS43 KFSD 280102
RWRSD

WEATHER ROUNDUP FOR SOUTH DAKOTA
NATIONAL WEATHER SERVICE SIOUX FALLS SD
800 PM CDT SAT AUG 27 2016

NOTE: "FAIR" INDICATES FEW OR NO CLOUDS BELOW 12,000 FEET WITH NO
SIGNIFICANT WEATHER AND/OR OBSTRUCTIONS TO VISIBILITY.


SDZ001>005-009-010-012>017-280200-
NORTHWEST AND NORTH CENTRAL SOUTH DAKOTA

CITY           SKY/WX    TMP DP  RH WIND       PRES   REMARKS
FAITH            N/A     76  54  46 SE10      29.89S
MOBRIDGE       PTCLDY    75  57  53 SE8       29.88S
$$

SDZ012>016-024>037-041>051-057-063-072>074-280200-
SOUTHWEST AND SOUTH CENTRAL SOUTH DAKOTA

CITY           SKY/WX    TMP DP  RH WIND       PRES   REMARKS
RAPID CTY ARPT CLOUDY    76  53  44 S5        29.90R
PIERRE         CLEAR     75  57  53 E7        29.88R
CUSTER         CLOUDY    71  40  32 SE3       30.05S
ELLSWORTH AFB  CLOUDY    81  51  35 E5        29.89S
PHILIP         CLOUDY    74  63  68 E6        29.88S
PINE RIDGE     CLEAR     78  54  43 SE8       29.92S
WINNER         FAIR      80  64  58 SE6       29.90S
$$

SDZ004>011-016>023-039-040-280200-
NORTHEAST SOUTH DAKOTA

CITY           SKY/WX    TMP DP  RH WIND       PRES   REMARKS
ABERDEEN       CLEAR     73  62  68 SE7       29.91S
WATERTOWN      CLEAR     70  62  76 S6        29.97R
BROOKINGS      CLEAR     70  63  78 SE6       29.98S
$$

SDZ017-020-022-023-036>040-048>070-280200-
SOUTHEAST SOUTH DAKOTA

CITY           SKY/WX    TMP DP  RH WIND       PRES   REMARKS
SIOUX FALLS    PTCLDY    73  65  75 S7        29.99R
HURON          CLEAR     76  61  59 SE7       29.92S
CHAMBERLAIN    PTCLDY    80  64  57 SE8       29.91R
MITCHELL       PTCLDY    76  63  64 SE12      29.94S
YANKTON        CLEAR     75  64  69 SE10      29.96R
$$

ABBREVIATIONS USED IN REMARKS
   TC - TEMPERATURE IN CELSIUS
  WCI - WIND CHILL INDEX
   HX - HEAT INDEX
  VSB - VISIBILITY




USA.gov is the U.S. government's official web portal to all federal, state and local government web resources and services.